Weather History for St. Joseph, MO

Change the Weather History Date:

Monday, November 12, 2012

  Actual Average Record
Temperature  
Mean Temperature 34 °F 44 °F  
Max Temperature 44 °F 55 °F 78 °F (2005)
Min Temperature 24 °F 33 °F 5 °F (1911)
Degree Days  
Heating Degree Days 31 21  
Month to date heating degree days 187 225  
Since 1 July heating degree days 688 644  
Cooling Degree Days 0 0  
Month to date cooling degree days 5 0  
Year to date cooling degree days 1565 1220  
Moisture  
Dew Point 20 °F    
Average Humidity 61    
Maximum Humidity 84    
Minimum Humidity 37    
Precipitation  
Precipitation 0.00 in 0.04 in 1.46 in (1997)
Month to date precipitation 1.79 0.79  
Year to date precipitation 22.31 33.32  
Sea Level Pressure  
Sea Level Pressure 30.36 in    
Wind  
Wind Speed 8 mph (WSW)    
Max Wind Speed 24 mph    
Max Gust Speed 32 mph    
Visibility 10 miles    
Events      
T = Trace of Precipitation, MM = Missing Value Source: NWS Daily Summary

Daily Weather History Graph

Daily Weather History Graph

Search for Another Location

Airport:

Trip Planner

Search our weather history database for the weather conditions in past years. The results will help you decide how hot, cold, wet, or windy it might be!

Date:

Astronomy

Nov. 12, 2012 Rise Set
Actual Time 7:01 AM CST 5:05 PM CST
Civil Twilight 6:32 AM CST 5:34 PM CST
Nautical Twilight 6:00 AM CST 6:07 PM CST
Astronomical Twilight 5:28 AM CST 6:38 PM CST
Moon 5:27 AM CST (11/12) 4:11 PM CST (11/12)
Length of Visible Light 11h 01m
Length of Day
10h 04m
Waning Crescent, 2% of the Moon is Illuminated
Nov 12
Waning Crescent
Nov 13
New
Nov 20
First Quarter
Nov 28
Full
Dec 6
Last Quarter

Hourly Weather History & Observations

Time (CST) Temp. Windchill Dew Point Humidity Pressure Visibility Wind Dir Wind Speed Gust Speed Precip Events Conditions
12:53 AM 26.1 °F 19.4 °F 18.0 °F 71% 30.26 in 10.0 mi WSW 5.8 mph - N/A   Clear
1:53 AM 26.1 °F 17.6 °F 19.0 °F 75% 30.27 in 10.0 mi WSW 8.1 mph - N/A   Clear
2:53 AM 25.0 °F 15.5 °F 19.0 °F 78% 30.28 in 10.0 mi WSW 9.2 mph - N/A   Clear
3:53 AM 25.0 °F 15.5 °F 18.0 °F 75% 30.29 in 10.0 mi WSW 9.2 mph - N/A   Clear
4:53 AM 25.0 °F 18.1 °F 18.0 °F 75% 30.31 in 10.0 mi WSW 5.8 mph - N/A   Clear
5:53 AM 25.0 °F 18.1 °F 17.1 °F 72% 30.32 in 10.0 mi WSW 5.8 mph - N/A   Clear
6:53 AM 25.0 °F 16.3 °F 17.1 °F 72% 30.33 in 10.0 mi WSW 8.1 mph - N/A   Clear
7:53 AM 26.1 °F 19.4 °F 18.0 °F 71% 30.35 in 10.0 mi WSW 5.8 mph - N/A   Clear
8:53 AM 28.9 °F 20.4 °F 19.0 °F 67% 30.37 in 10.0 mi WSW 9.2 mph - N/A   Clear
9:53 AM 33.1 °F 23.9 °F 19.9 °F 59% 30.38 in 10.0 mi West 12.7 mph 20.7 mph N/A   Clear
10:53 AM 36.0 °F 28.0 °F 21.9 °F 57% 30.37 in 10.0 mi West 11.5 mph - N/A   Clear
11:53 AM 39.9 °F 32.1 °F 23.0 °F 51% 30.35 in 10.0 mi West 13.8 mph - N/A   Clear
12:53 PM 43.0 °F 33.8 °F 21.0 °F 42% 30.34 in 10.0 mi WNW 23.0 mph 28.8 mph N/A   Clear
1:53 PM 44.1 °F 36.2 °F 21.0 °F 40% 30.33 in 10.0 mi WNW 18.4 mph 25.3 mph N/A   Clear
2:53 PM 44.1 °F 36.2 °F 19.9 °F 38% 30.34 in 10.0 mi WNW 18.4 mph 23.0 mph N/A   Clear
3:53 PM 44.1 °F 37.1 °F 19.0 °F 37% 30.35 in 10.0 mi West 15.0 mph - N/A   Clear
4:53 PM 39.9 °F 35.1 °F 19.9 °F 45% 30.38 in 10.0 mi WNW 6.9 mph - N/A   Clear
5:53 PM 35.1 °F 31.0 °F 19.9 °F 54% 30.39 in 10.0 mi West 4.6 mph - N/A   Clear
7:53 PM 30.9 °F 27.5 °F 25.0 °F 79% 30.42 in 10.0 mi SSE 3.5 mph - N/A   Clear
8:53 PM 30.9 °F - 25.0 °F 79% 30.43 in 10.0 mi Calm Calm - N/A   Clear
9:53 PM 27.0 °F - 23.0 °F 85% 30.45 in 10.0 mi Calm Calm - N/A   Clear
10:53 PM 27.0 °F - 23.0 °F 85% 30.44 in 10.0 mi Calm Calm - N/A   Clear
11:53 PM 28.0 °F 24.2 °F 24.1 °F 85% 30.45 in 10.0 mi SSW 3.5 mph - N/A   Clear